Birmingham, AL

8:43 AM CDT on August 19, 2017 (GMT -0500)
Birmingham International

Weather History for KBHM - April, 2012

Change the Weather History Date:

Thursday, April 26, 2012

  Actual Average Record
Temperature  
Mean Temperature 75 °F 65 °F  
Max Temperature 87 °F 77 °F 89 °F (1986)
Min Temperature 63 °F 54 °F 34 °F (1910)
Degree Days  
Heating Degree Days 0 3  
Month to date heating degree days 64 131  
Since 1 July heating degree days 1918 2643  
Cooling Degree Days 10 3  
Month to date cooling degree days 66 50  
Year to date cooling degree days 192 72  
Growing Degree Days 24 (Base 50)    
Moisture  
Dew Point 57 °F    
Average Humidity 60    
Maximum Humidity 90    
Minimum Humidity 30    
Precipitation  
Precipitation 0.00 in 0.14 in 1.98 in (2007)
Month to date precipitation 1.26 3.80  
Year to date precipitation 14.84 18.40  
Snow  
Snow 0.00 in 0.00 in - ()
Month to date snowfall 0.0 0.2  
Since 1 July snowfall T 1.6  
Snow Depth 0.00 in    
Sea Level Pressure  
Sea Level Pressure 29.95 in    
Wind  
Wind Speed 12 mph (SW)    
Max Wind Speed 25 mph    
Max Gust Speed 32 mph    
Visibility 10 miles    
Events      
T = Trace of Precipitation, MM = Missing Value Source: NWS Daily Summary

Daily Weather History Graph

Daily Weather History Graph

Search for Another Location

Airport or City:

Trip Planner

Search our weather history database for the weather conditions in past years. The results will help you decide how hot, cold, wet, or windy it might be!

Date:

Astronomy

Apr. 26, 2012 Rise Set
Actual Time 6:03 AM CDT 7:26 PM CDT
Civil Twilight 5:37 AM CDT 7:52 PM CDT
Nautical Twilight 5:05 AM CDT 8:24 PM CDT
Astronomical Twilight 4:33 AM CDT 8:57 PM CDT
Moon 9:48 AM CDT (4/26) No Moon Set
Length of Visible Light 14h 15m
Length of Day
13h 23m
Waxing Crescent, 24% of the Moon is Illuminated
Apr 26
Waxing Crescent
Apr 29
First Quarter
May 5
Full
May 12
Last Quarter
May 20
New

Hourly Weather History & Observations

Time (CDT) Temp. Heat Index Dew Point Humidity Pressure Visibility Wind Dir Wind Speed Gust Speed Precip Events Conditions
12:53 AM 69.1 °F - 57.0 °F 65% 29.93 in 10.0 mi SSW 12.7 mph 19.6 mph N/A   Clear
1:53 AM 66.9 °F - 57.9 °F 73% 29.93 in 10.0 mi SSW 11.5 mph 23.0 mph N/A   Clear
2:53 AM 66.0 °F - 59.0 °F 78% 29.94 in 10.0 mi SW 12.7 mph 17.3 mph N/A   Clear
3:53 AM 64.9 °F - 59.0 °F 81% 29.96 in 10.0 mi SW 10.4 mph - N/A   Clear
4:53 AM 63.0 °F - 59.0 °F 87% 29.96 in 10.0 mi SW 12.7 mph 18.4 mph N/A   Clear
5:53 AM 63.0 °F - 59.0 °F 87% 29.96 in 10.0 mi SSW 11.5 mph - N/A   Partly Cloudy
6:53 AM 63.0 °F - 59.0 °F 87% 29.97 in 10.0 mi SW 11.5 mph - N/A   Scattered Clouds
7:53 AM 66.0 °F - 59.0 °F 78% 29.99 in 10.0 mi SW 13.8 mph 19.6 mph N/A   Clear
8:53 AM 69.1 °F - 57.9 °F 68% 29.98 in 10.0 mi SW 11.5 mph - N/A   Clear
9:53 AM 73.0 °F - 57.0 °F 57% 29.99 in 10.0 mi WSW 12.7 mph - N/A   Partly Cloudy
10:53 AM 79.0 °F - 57.0 °F 47% 29.97 in 10.0 mi SW 15.0 mph 23.0 mph N/A   Partly Cloudy
11:53 AM 81.0 °F 80.8 °F 55.9 °F 42% 29.97 in 10.0 mi SW 18.4 mph 24.2 mph N/A   Partly Cloudy
12:53 PM 82.0 °F 81.2 °F 53.1 °F 37% 29.96 in 10.0 mi WSW 18.4 mph 29.9 mph N/A   Scattered Clouds
1:53 PM 84.9 °F - 50.0 °F 30% 29.95 in 10.0 mi WSW 20.7 mph 27.6 mph N/A   Clear
2:53 PM 84.9 °F - 51.1 °F 31% 29.94 in 10.0 mi WSW 19.6 mph 26.5 mph N/A   Scattered Clouds
3:53 PM 84.9 °F 83.6 °F 55.0 °F 36% 29.92 in 10.0 mi SW 16.1 mph 24.2 mph N/A   Scattered Clouds
4:53 PM 86.0 °F - 52.0 °F 31% 29.91 in 10.0 mi WSW 16.1 mph 20.7 mph N/A   Scattered Clouds
5:53 PM 84.0 °F 82.6 °F 54.0 °F 35% 29.90 in 10.0 mi SW 13.8 mph 20.7 mph N/A   Scattered Clouds
6:53 PM 82.0 °F 81.4 °F 55.0 °F 39% 29.91 in 10.0 mi SW 13.8 mph 23.0 mph N/A   Mostly Cloudy
7:53 PM 81.0 °F 81.0 °F 57.0 °F 44% 29.93 in 10.0 mi WSW 11.5 mph - N/A   Mostly Cloudy
8:53 PM 79.0 °F - 59.0 °F 50% 29.96 in 10.0 mi SW 3.5 mph - N/A   Overcast
9:53 PM 75.9 °F - 60.1 °F 58% 29.97 in 10.0 mi Calm Calm - N/A   Mostly Cloudy
10:53 PM 73.9 °F - 60.1 °F 62% 29.97 in 10.0 mi Calm Calm - N/A   Partly Cloudy
11:53 PM 70.0 °F - 61.0 °F 73% 29.96 in 10.0 mi Calm Calm - N/A   Mostly Cloudy